Location: Goettingen
(51.5300°N, 9.9433°E)
Time: 17:11:56
(UTC+01:00)

ISS - Pass Details

Date: 24 January 2020
Orbit: 415 x 421 km, 51.6° (Epoch: 18 January)

Event Time Altitude Azimuth Distance (km) Brightness Sun altitude
Rises 18:23:04 0° 224° (SW) 2,357 1.1 -13.5°
Reaches altitude 10° 18:25:17 10° 213° (SSW) 1,495 -0.3 -13.9°
Maximum altitude 18:28:17 31° 150° (SSE) 769 -2.6 -14.3°
Enters shadow 18:29:24 24° 113° (ESE) 906 -2.5 -14.5°
